LEMUR-2-LILLYJO (44396 NORAD) Tracking and Keplerian Element Data

This shows tracking and keplerian element data for the satellite.

Feedback or suggestion? Click here.




ElementValue
Catalog44396
NameLEMUR-2-LILLYJO
Epoch Orbit186
Epoch Day198.87602254
Epoch Year2019
RAAN160.5859
Inclination97.488
Eccentricity0.0024204
Argument of Perigee199.3676
Mean Anonmoly160.6637
Mean Motion15.11797753
Decay Rate8.48E-06
L11 44396U 19038L 19198.87602254 .00000848 00000-0 53131-4 0 9996
L22 44396 97.4880 160.5859 0024204 199.3676 160.6637 15.11797753 1861

Live tracking and technical data element details for LEMUR-2-LILLYJO (NORAD 44396). LEMUR-2-LILLYJO can be tracked NOW for your location showing map with azimuth and elevation plus other details from your city location.

Track the satellite on the map from your city or location and see movement details for azimuth, elevation, latitude, longitude, range, height, and movement on the map or in text.







IsCatalogInMostPopularTable: catalog: 44396, numindb: 2
Update: records affected: 1



GetName: 44396 LEMUR-2-LILLYJO

Hit Count: updated at: Fri, 19 Jul 2019 07:44:59 GMT